Weather History for KDIK - September, 2012

Change the Weather History Date:

Friday, September 14, 2012

  Actual Average Record
Temperature  
Mean Temperature 58 °F 58 °F  
Max Temperature 81 °F 72 °F 94 °F (1946)
Min Temperature 35 °F 44 °F 18 °F (1904)
Degree Days  
Heating Degree Days 7 8  
Month to date heating degree days 68 83  
Since 1 July heating degree days 108 169  
Cooling Degree Days 0 1  
Month to date cooling degree days 29 25  
Year to date cooling degree days 583 411  
Growing Degree Days 9 (Base 50)    
Moisture  
Dew Point 30 °F    
Average Humidity 44    
Maximum Humidity 70    
Minimum Humidity 17    
Precipitation  
Precipitation 0.00 in 0.05 in 0.42 in (2013)
Month to date precipitation 0.06 0.69  
Year to date precipitation 8.48 12.98  
Sea Level Pressure  
Sea Level Pressure 30.22 in    
Wind  
Wind Speed 6 mph (South)    
Max Wind Speed 16 mph    
Max Gust Speed 20 mph    
Visibility 10 miles    
Events      
T = Trace of Precipitation, MM = Missing Value Source: NWS Daily Summary

Daily Weather History Graph

Daily Weather History Graph

Search for Another Location

Airport or City:

Trip Planner

Search our weather history database for the weather conditions in past years. The results will help you decide how hot, cold, wet, or windy it might be!

Date:

Astronomy

Sep. 14, 2012 Rise Set
Actual Time 6:28 AM MDT 7:03 PM MDT
Civil Twilight 5:57 AM MDT 7:34 PM MDT
Nautical Twilight 5:21 AM MDT 8:10 PM MDT
Astronomical Twilight 4:43 AM MDT 8:48 PM MDT
Moon 4:52 AM MDT (9/14) 6:02 PM MDT (9/14)
Length of Visible Light 13h 36m
Length of Day
12h 35m
Waning Crescent, 2% of the Moon is Illuminated
Sep 14
Waning Crescent
Sep 15
New
Sep 22
First Quarter
Sep 29
Full
Oct 8
Last Quarter

Hourly Weather History & Observations

Time (MDT) Temp. Windchill Dew Point Humidity Pressure Visibility Wind Dir Wind Speed Gust Speed Precip Events Conditions
12:56 AM 41.0 °F - 26.1 °F 55% 30.35 in 10.0 mi Calm Calm - N/A   Clear
1:56 AM 44.1 °F 41.5 °F 28.0 °F 53% 30.34 in 10.0 mi NW 4.6 mph - N/A   Clear
2:56 AM 39.0 °F 33.4 °F 27.0 °F 62% 30.34 in 10.0 mi WNW 8.1 mph - N/A   Clear
3:56 AM 39.9 °F 37.8 °F 27.0 °F 60% 30.33 in 10.0 mi West 3.5 mph - N/A   Clear
4:56 AM 39.9 °F - 28.0 °F 63% 30.33 in 10.0 mi Calm Calm - N/A   Clear
5:56 AM 39.9 °F - 28.0 °F 63% 30.34 in 10.0 mi Calm Calm - N/A   Clear
6:56 AM 37.0 °F 34.5 °F 28.0 °F 70% 30.35 in 10.0 mi SSW 3.5 mph - N/A   Clear
7:56 AM 52.0 °F - 32.0 °F 47% 30.33 in 10.0 mi Calm Calm - N/A   Clear
8:56 AM 61.0 °F - 32.0 °F 34% 30.32 in 10.0 mi SSW 4.6 mph - N/A   Clear
9:56 AM 64.9 °F - 33.1 °F 31% 30.31 in 10.0 mi Variable 3.5 mph - N/A   Clear
10:56 AM 68.0 °F - 30.9 °F 25% 30.30 in 10.0 mi Variable 5.8 mph - N/A   Clear
11:56 AM 73.0 °F - 30.0 °F 20% 30.27 in 10.0 mi Calm Calm - N/A   Clear
12:56 PM 75.0 °F - 30.9 °F 20% 30.24 in 10.0 mi Variable 3.5 mph - N/A   Clear
1:56 PM 77.0 °F - 32.0 °F 19% 30.20 in 10.0 mi SW 4.6 mph - N/A   Clear
2:56 PM 79.0 °F - 33.1 °F 19% 30.18 in 10.0 mi South 5.8 mph - N/A   Clear
3:56 PM 81.0 °F - 33.1 °F 18% 30.15 in 10.0 mi South 9.2 mph - N/A   Clear
4:56 PM 80.1 °F - 32.0 °F 17% 30.13 in 10.0 mi SSE 6.9 mph - N/A   Clear
5:56 PM 78.1 °F - 32.0 °F 19% 30.12 in 10.0 mi SSE 9.2 mph - N/A   Clear
6:56 PM 68.0 °F - 33.1 °F 27% 30.12 in 10.0 mi SE 11.5 mph - N/A   Clear
7:56 PM 63.0 °F - 32.0 °F 31% 30.09 in 10.0 mi SE 11.5 mph - N/A   Clear
8:56 PM 60.1 °F - 30.9 °F 33% 30.07 in 10.0 mi SSE 10.4 mph - N/A   Clear
9:56 PM 60.1 °F - 30.0 °F 32% 30.06 in 10.0 mi SSE 12.7 mph - N/A   Clear
10:56 PM 59.0 °F - 28.9 °F 32% 30.04 in 10.0 mi South 10.4 mph - N/A   Clear
11:56 PM 59.0 °F - 28.9 °F 32% 30.02 in 10.0 mi South 11.5 mph - N/A   Clear